This is the latest recevied weather packets stored in our database for station/object APPOWX. If no packets are shown the sender has not sent any weather packets the latest 10 day(s).
| Time | Temp. | Humidity | Pressure | Rain* | Wind** | Luminosity | Snow |
|---|---|---|---|---|---|---|---|
| 1777146875 | 17.78° C | 91% | 1011.9 hPa | 1.02 mm | - | - | - |
| 1777146815 | 18.33° C | 91% | 1011.8 hPa | 1.02 mm | - | - | - |
| 1777146756 | 18.33° C | 90% | 1011.5 hPa | 1.02 mm | - | - | - |
| 1777146695 | 18.89° C | 89% | 1011.4 hPa | 0 mm | - | - | - |
| 1777146635 | 19.44° C | 86% | 1011.3 hPa | 0 mm | - | - | - |
| 1777146575 | 20.56° C | 84% | 1011.3 hPa | 0 mm | - | - | - |
| 1777146516 | 20.56° C | 82% | 1011.3 hPa | 0 mm | - | - | - |
| 1777146455 | 21.67° C | 79% | 1011.3 hPa | 0 mm | - | - | - |
| 1777146395 | 22.22° C | 77% | 1011.3 hPa | 0 mm | - | - | - |
| 1777146335 | 22.22° C | 78% | 1011.3 hPa | 0 mm | - | - | - |
| 1777146274 | 22.22° C | 75% | 1011.1 hPa | 0 mm | - | - | - |
| 1777146215 | 22.22° C | 73% | 1010.7 hPa | 0 mm | - | - | - |
| 1777146155 | 22.22° C | 73% | 1010.5 hPa | 0 mm | - | - | - |
| 1777146094 | 22.22° C | 72% | 1010.4 hPa | 0 mm | - | - | - |
| 1777146034 | 22.22° C | 72% | 1010.4 hPa | 0 mm | - | - | - |
| 1777145975 | 22.22° C | 71% | 1010.3 hPa | 0 mm | - | - | - |
| 1777145914 | 22.22° C | 71% | 1010.4 hPa | 0 mm | - | - | - |
| 1777145854 | 22.22° C | 71% | 1010 hPa | 0 mm | - | - | - |
| 1777145794 | 22.78° C | 71% | 1010.1 hPa | 0 mm | - | - | - |
| 1777145734 | 22.78° C | 70% | 1010.1 hPa | 0 mm | - | - | - |
| 1777145673 | 22.78° C | 69% | 1010.1 hPa | 0 mm | - | - | - |
| 1777145613 | 22.78° C | 69% | 1010.2 hPa | 0 mm | - | - | - |
| 1777145553 | 22.78° C | 69% | 1010.1 hPa | 0 mm | - | - | - |
| 1777145493 | 22.78° C | 69% | 1010 hPa | 0 mm | - | - | - |
| 1777145433 | 22.78° C | 70% | 1010.2 hPa | 0 mm | - | - | - |
* Rain latest hour (hover to see other rain measurements)
** Current wind speed in m/s (hover to see current wind gust speed)